GFSMA_700_rhum_021.txt.gz
RH
40 40 40 41 41 40 40 40 40 40 42 43 43 45 45 44 42 40 38 38 36 36 34 31 28 24 20 34 39 43 68 65 90 87 79 72 74 72 73 72 64 21 18
38 40 41 42 44 44 44 45 45 45 45 45 44 43 44 45 47 51 54 54 50 45 42 39 38 35 29 31 51 59 68 80 82 94 93 84 80 79 77 72 77 66 21
36 36 39 43 44 45 47 48 48 48 48 48 49 49 49 49 47 46 49 55 56 54 52 48 44 42 40 36 43 68 72 65 90 88 89 95 88 81 82 85 88 79 68
44 40 40 45 49 49 51 54 55 56 57 57 57 56 55 55 55 53 51 50 52 56 56 56 54 51 46 43 40 36 92 85 57 78 90 100 93 90 84 84 80 88 89
52 47 43 44 49 50 51 53 55 57 55 56 58 58 57 56 56 56 54 52 51 51 51 51 50 50 51 50 46 44 41 87 88 69 68 85 98 95 95 81 84 86 89
67 56 50 48 51 51 51 55 56 56 56 56 55 53 57 59 58 57 56 56 56 55 54 55 54 52 51 50 48 48 46 44 45 62 76 80 79 92 98 100 98 96 91
74 73 58 53 51 49 48 51 63 65 64 72 74 65 60 59 59 60 60 59 57 57 59 56 54 56 53 49 50 49 47 46 46 44 36 73 91 83 82 91 99 100 96
73 68 62 57 53 52 50 48 48 56 73 84 83 84 78 60 64 61 64 66 63 61 60 59 56 54 56 54 50 47 46 43 42 47 46 42 84 100 97 84 83 96 99
70 63 57 57 58 60 61 60 56 55 59 80 99 98 93 72 74 66 71 66 67 70 68 65 54 53 53 50 47 48 49 47 40 37 44 47 45 48 78 92 90 89 92
52 46 45 47 48 51 51 53 60 64 78 84 88 96 92 84 77 75 68 77 67 62 69 66 57 51 47 43 42 40 42 51 52 43 37 40 46 46 44 42 44 54 78
49 42 40 36 34 34 35 39 52 59 70 87 99 100 95 91 86 79 82 85 77 74 70 63 55 56 49 45 45 43 38 38 52 59 50 38 37 42 46 44 42 33 28
30 28 23 19 18 16 16 18 23 32 49 63 79 100 100 100 100 98 83 86 86 78 73 72 61 56 58 56 52 50 44 42 44 59 59 51 41 36 39 44 42 40 34
29 26 18 12 10 10 10 15 29 36 45 61 80 94 89 98 100 99 97 100 98 89 90 83 78 74 64 50 52 49 43 45 45 54 57 54 47 39 36 37 44 40 38
32 30 26 21 17 20 33 48 63 76 83 98 99 100 99 98 97 96 96 97 96 97 96 94 91 82 73 65 55 49 47 48 47 52 52 52 47 42 37 34 31 44 41
22 21 19 17 23 46 76 82 85 100 98 97 97 97 96 96 96 96 96 96 96 87 85 82 76 72 67 61 53 49 48 51 55 52 52 52 47 41 38 34 32 28 45
17 15 31 54 76 93 97 100 98 98 97 95 95 95 94 94 94 94 89 86 82 66 55 43 36 38 42 45 49 52 53 53 53 53 51 48 43 37 36 34 31 30 28
30 57 89 98 95 93 97 96 98 96 96 96 95 95 96 95 83 61 39 19 12 10 10 9 8 8 8 8 9 10 13 18 23 25 22 22 24 28 28 31 32 30 29
75 95 94 99 98 97 96 98 95 96 96 96 96 96 80 44 21 13 11 10 10 11 16 14 8 8 7 6 6 6 4 4 4 5 6 7 9 12 17 21 26 29 29
99 98 98 97 96 94 95 96 96 90 84 62 37 20 14 12 11 10 10 10 11 13 19 23 18 20 20 18 16 16 14 11 11 9 7 7 6 6 9 13 18 22 26
90 94 97 99 99 98 95 80 55 35 18 15 14 14 14 13 12 11 11 13 17 23 29 32 30 28 29 27 26 24 22 22 17 17 13 11 10 7 5 7 11 16 20
92 91 91 87 67 36 27 23 19 17 18 20 21 20 18 18 20 26 29 28 30 32 33 34 37 40 47 55 56 56 53 53 44 32 22 16 16 13 7 5 6 10 13
94 90 75 42 27 25 24 23 24 26 28 26 18 15 16 23 34 29 26 32 48 67 74 80 80 76 75 79 78 75 74 71 64 65 57 45 32 17 12 9 5 6 9
63 40 30 28 28 28 30 31 32 36 36 27 18 24 36 34 23 38 68 81 86 90 93 93 86 80 80 82 81 76 76 77 76 79 74 58 59 42 25 12 10 8 7
46 32 31 33 31 31 37 43 45 46 40 30 34 42 29 26 74 91 90 89 90 87 88 93 92 88 90 94 94 90 86 85 82 81 82 71 81 70 64 41 23 12 9
32 32 29 26 25 26 32 43 51 47 39 41 45 31 44 88 98 99 98 90 85 89 95 92 90 92 95 96 97 99 94 97 92 89 87 88 83 79 81 70 59 40 19
30 28 26 25 32 41 60 66 62 55 51 49 41 35 96 98 98 100 98 94 92 94 93 91 90 97 100 100 97 98 98 98 98 94 88 95 96 91 83 80 79 71 51

GFSMA_700_rhum_027.txt.gz
RH
49 48 44 41 40 38 37 36 38 41 42 43 44 45 45 44 44 46 49 42 43 45 47 47 42 36 32 28 29 29 26 22 39 67 69 68 85 71 72 76 60 43 39
57 56 49 51 51 47 44 42 39 37 37 39 39 39 41 45 47 45 46 45 44 45 44 46 47 47 47 41 34 31 29 25 21 40 70 76 78 77 87 70 75 59 63
64 66 66 64 66 66 56 50 46 42 41 39 39 38 37 38 43 44 45 51 44 47 47 47 48 49 47 48 48 44 38 35 30 35 38 71 76 78 77 77 79 66 76
72 64 54 70 64 59 63 58 56 52 50 48 46 43 44 39 37 37 42 45 50 44 42 47 48 49 50 50 49 48 49 45 38 34 46 57 73 78 98 99 78 84 70
61 60 57 53 52 53 48 44 41 44 40 40 40 50 45 39 43 42 39 37 41 47 47 38 44 49 51 52 51 50 48 47 47 44 38 38 56 70 82 95 99 96 94
66 66 66 68 63 56 47 44 45 45 46 50 49 53 59 59 53 52 53 43 42 41 44 52 41 43 47 49 52 52 51 50 47 45 47 44 37 41 64 75 89 97 100
79 75 65 71 79 77 71 60 57 55 50 47 49 48 45 45 50 50 49 52 55 49 43 46 52 47 43 45 50 54 53 54 53 50 46 46 47 41 40 74 76 73 90
85 94 96 94 89 88 73 62 56 46 34 33 42 53 51 51 72 62 56 45 56 58 62 46 51 55 63 53 50 53 54 54 52 50 51 49 47 47 45 42 78 87 70
91 91 90 82 76 66 52 43 34 30 31 32 27 37 47 49 77 94 100 99 85 82 72 85 65 54 58 63 68 54 59 58 55 50 47 46 48 47 48 46 44 48 58
65 65 63 59 56 56 48 43 39 36 33 29 28 26 54 88 78 78 80 98 99 97 88 88 100 85 64 55 60 66 64 65 66 57 48 45 44 43 43 43 44 44 44
58 60 60 56 51 50 49 44 35 34 34 30 24 24 25 29 44 61 59 96 97 97 98 98 100 100 99 83 65 65 64 71 65 64 55 47 45 40 38 40 41 41 40
56 40 36 35 30 33 28 24 22 24 25 24 23 28 33 34 42 49 81 100 89 98 92 97 97 98 100 99 91 81 71 72 74 71 64 52 47 43 38 31 33 38 41
40 33 26 22 22 22 21 18 15 15 22 32 39 52 65 76 75 75 82 93 99 98 98 83 97 95 96 95 87 97 72 80 79 70 69 58 53 50 45 38 30 26 28
23 22 22 19 14 10 12 30 54 65 79 91 91 94 99 90 96 99 99 100 100 95 100 98 99 99 99 96 97 94 81 82 80 79 66 64 56 52 52 43 38 30 24
19 14 10 10 17 37 54 80 91 98 96 86 86 90 96 96 97 97 97 98 97 97 94 96 96 96 96 97 95 93 77 77 72 68 66 67 59 54 54 52 44 40 30
8 10 21 40 58 66 84 86 91 100 97 96 96 96 95 96 94 93 86 89 93 96 92 98 95 96 96 95 92 96 84 79 76 70 64 62 66 60 56 55 52 44 35
15 36 54 65 70 68 67 74 80 84 80 89 94 95 95 96 97 98 98 100 100 95 82 73 92 93 90 83 83 79 68 45 38 38 43 50 57 57 55 52 49 44 38
47 54 69 83 96 99 80 78 76 83 88 94 100 100 100 88 31 21 20 30 46 92 99 88 96 74 32 21 21 20 14 21 24 13 10 19 28 35 33 37 39 38 37
80 97 95 92 94 92 89 71 60 82 61 35 39 28 23 22 21 20 22 23 38 80 83 66 48 61 53 49 24 17 15 19 11 13 8 7 6 6 8 8 14 20 24
97 97 92 88 89 86 82 94 85 30 27 27 27 27 26 27 27 27 28 31 32 31 28 20 14 24 77 94 96 87 80 73 42 63 82 47 20 8 5 4 4 4 4
84 85 91 87 77 60 92 41 29 30 28 26 26 24 23 22 23 34 37 32 27 25 27 28 20 32 76 46 33 44 63 64 47 43 42 35 32 26 15 11 8 8 6
100 88 38 28 67 78 64 26 26 26 24 22 23 29 33 37 49 36 36 32 31 35 34 29 25 25 35 57 70 78 80 79 74 90 68 60 66 52 40 33 23 11 6
36 28 34 64 66 46 32 18 26 31 37 41 46 52 58 68 58 57 48 44 36 30 42 66 76 81 89 92 94 92 88 87 83 82 86 71 74 67 64 56 51 46 33
27 26 21 20 22 48 43 42 58 62 64 68 71 71 68 63 59 56 49 38 37 74 96 97 94 88 91 93 95 93 90 89 84 81 86 79 82 74 77 67 58 53 54
18 16 19 33 39 54 65 60 60 59 60 62 62 60 60 57 55 47 41 62 95 97 100 98 96 97 98 97 97 99 90 99 90 82 90 95 86 86 91 80 69 61 58
38 21 33 49 58 57 61 62 68 68 62 59 56 53 52 52 50 70 98 100 97 99 99 99 100 97 95 94 99 99 99 93 92 88 94 99 98 100 100 100 92 81 72

GFSMA_700_rhum_033.txt.gz
RH
50 53 57 51 47 47 46 45 40 43 42 45 44 38 32 26 30 32 33 31 30 32 36 40 42 44 43 39 35 36 31 44 78 90 75 63 69 60 63 62 59 75 72
52 55 57 45 43 44 46 45 44 42 38 33 30 31 32 32 32 35 34 32 31 32 33 35 39 41 44 48 44 38 39 34 51 85 81 72 63 69 63 73 74 74 79
53 60 59 56 60 62 62 61 65 61 52 45 36 32 38 36 33 32 34 36 34 32 32 34 37 37 38 42 47 48 44 42 41 33 32 34 39 33 54 70 75 77 79
57 64 66 72 74 77 78 81 75 60 65 69 58 50 49 48 49 45 40 38 37 32 34 40 41 41 40 41 41 44 48 47 44 45 43 37 29 26 26 59 78 88 89
60 66 73 77 79 78 78 73 56 52 47 51 51 55 51 58 60 62 56 47 43 41 39 34 34 38 42 45 44 44 44 46 49 48 48 48 44 37 29 26 62 84 98
74 68 76 82 75 74 76 75 55 50 51 57 55 49 48 52 56 56 53 44 45 46 44 45 45 41 36 40 45 48 49 46 43 45 49 50 51 50 43 36 39 58 82
68 73 76 75 72 72 73 58 47 54 56 58 52 52 54 54 52 49 41 36 38 47 66 55 48 47 46 43 48 55 56 56 50 44 42 45 49 50 52 48 43 50 55
70 77 83 82 71 48 42 41 48 48 51 54 52 50 46 41 44 45 44 41 40 41 48 72 98 100 95 68 72 89 82 62 63 56 50 46 45 48 50 50 51 46 50
86 87 72 48 42 43 46 50 50 48 43 38 32 31 28 27 26 26 28 30 31 34 44 61 76 83 87 92 80 97 100 97 68 64 62 57 53 49 48 51 52 51 50
46 40 40 39 37 40 54 50 39 30 26 24 23 20 18 19 21 18 18 18 19 21 31 47 79 99 99 98 99 90 97 100 95 82 70 62 56 53 50 48 49 52 54
41 40 39 41 43 36 32 30 28 23 15 9 8 7 7 10 38 42 10 9 13 18 18 20 36 58 95 98 92 98 98 100 100 100 90 83 68 58 55 51 46 47 48
44 39 37 36 36 34 24 14 11 8 7 9 10 20 33 32 37 58 50 35 34 27 30 43 49 50 56 86 99 80 92 84 98 100 84 89 85 68 60 61 58 48 45
40 38 32 22 16 16 14 9 8 9 18 21 33 47 55 68 73 71 75 70 67 53 55 70 80 63 70 81 80 97 100 98 97 100 90 100 99 86 79 70 58 58 56
30 19 22 22 17 13 11 11 14 21 38 52 53 56 63 71 86 85 86 77 70 64 70 73 88 91 90 96 100 97 97 97 98 96 96 97 100 96 97 87 75 62 50
20 26 23 20 14 10 14 25 39 62 71 73 74 71 78 83 98 98 97 98 98 76 54 60 76 90 94 93 100 98 89 97 95 99 96 83 92 81 91 77 74 74 69
30 26 17 12 12 21 35 67 77 79 82 84 83 81 78 82 96 100 98 98 98 97 79 76 76 79 84 96 93 95 96 97 99 94 97 95 94 99 82 78 83 76 64
27 17 15 16 28 61 79 88 99 96 95 92 70 53 76 84 94 94 54 70 37 60 82 69 62 60 69 69 82 99 96 96 98 97 94 94 96 93 76 71 64 60 65
26 19 25 54 98 100 100 100 96 79 73 44 37 62 66 88 41 37 36 37 36 33 29 24 27 30 32 29 32 52 70 91 93 97 98 95 94 88 71 76 78 72 72
28 34 80 95 83 75 74 69 52 31 28 36 51 69 67 49 32 30 29 30 28 28 29 29 24 25 29 30 22 19 25 39 53 81 92 91 90 79 73 68 67 72 73
30 46 72 92 75 39 27 20 21 22 24 31 34 33 27 25 27 29 29 28 26 24 23 24 23 22 25 28 30 22 15 14 13 16 23 27 24 26 24 22 40 44 41
33 60 85 68 85 36 22 28 37 30 34 38 41 42 46 50 57 69 73 59 55 48 44 36 37 42 37 36 33 28 21 16 19 27 30 40 47 35 20 13 10 10 13
38 60 80 83 35 29 35 34 37 41 44 45 48 50 54 57 60 64 73 80 86 81 70 65 56 49 45 42 36 31 28 26 21 23 31 27 29 29 29 29 26 22 16
66 74 88 71 35 39 43 47 43 45 53 60 63 63 62 64 64 64 66 68 68 71 73 66 64 57 53 44 40 36 49 61 66 74 68 51 59 51 52 51 54 52 50
72 100 94 28 37 52 51 52 54 57 61 64 68 72 76 75 72 66 57 56 58 62 64 64 61 52 52 60 92 97 98 96 89 84 90 77 79 76 76 76 76 72 70
98 100 64 30 52 48 50 55 56 57 60 70 78 80 81 83 85 91 95 94 64 57 69 71 67 68 88 98 100 100 94 97 85 86 95 95 75 71 78 76 75 76 75
91 94 23 45 48 52 56 60 56 60 68 74 81 89 98 100 100 100 97 93 96 99 94 96 100 100 98 98 100 100 98 95 98 88 99 81 79 79 73 72 80 83 85

GFSMA_700_rhum_036.txt.gz
RH
52 54 54 59 59 56 56 53 55 57 57 50 44 42 35 29 31 35 38 38 36 33 33 34 34 36 41 44 42 44 47 38 34 63 89 96 89 79 66 72 69 55 66
52 56 58 62 67 62 62 66 66 65 62 65 57 51 48 41 31 33 36 34 36 40 38 34 34 35 35 39 44 46 45 49 44 33 61 94 91 72 75 73 67 72 65
56 62 61 70 70 70 72 75 72 69 68 62 51 44 40 46 49 41 43 46 44 38 38 42 40 38 38 39 38 40 46 47 49 48 37 63 91 92 75 75 72 77 74
66 68 64 64 65 67 72 77 74 74 70 68 63 37 36 38 42 49 52 48 49 53 45 44 40 43 42 42 43 41 39 43 48 50 50 47 44 58 41 71 70 76 87
73 67 64 66 68 70 74 77 77 72 62 53 43 30 31 33 35 42 48 52 51 54 55 51 48 45 45 47 44 40 44 43 40 47 50 51 51 50 51 45 45 77 86
97 90 85 87 78 79 82 78 67 52 40 36 32 28 28 32 37 41 46 50 53 51 51 49 45 44 59 56 54 48 45 50 47 43 44 50 51 52 52 47 39 38 51
100 100 100 83 82 82 73 56 42 37 36 34 30 30 33 36 38 42 47 49 49 48 42 38 38 39 42 54 74 85 73 62 61 54 45 44 47 50 52 53 50 43 39
87 86 83 85 84 81 61 48 43 38 37 36 35 29 24 23 25 27 28 28 30 34 39 41 45 44 40 46 56 97 100 92 79 68 61 50 48 46 48 52 52 53 47
60 61 62 59 56 53 52 48 42 38 34 33 33 31 27 23 20 17 16 19 21 21 20 21 24 28 31 35 53 74 89 99 99 88 67 58 57 50 47 47 50 52 53
60 60 55 52 52 47 41 36 34 33 31 21 14 11 10 9 9 11 9 8 8 8 9 9 12 18 26 35 43 55 76 80 100 99 95 76 65 62 55 50 47 47 50
57 59 58 52 45 40 37 34 25 21 19 16 13 11 11 11 15 19 10 9 10 20 28 19 13 12 18 28 57 72 86 90 96 99 98 91 90 74 68 59 54 50 48
64 58 48 44 39 30 24 25 26 22 17 13 13 16 20 27 37 48 49 36 38 33 49 60 60 53 46 38 35 51 84 78 92 99 100 97 94 92 82 70 62 57 52
54 49 42 31 21 26 30 27 21 15 14 16 35 45 55 61 58 57 68 65 60 48 53 54 56 64 65 65 63 58 73 100 85 90 96 98 95 95 96 87 77 70 61
50 41 28 20 28 35 29 19 15 18 31 57 60 72 76 77 72 70 72 85 92 78 65 54 64 80 74 78 80 85 76 78 98 89 97 95 88 95 96 96 97 80 72
50 34 32 30 37 29 20 18 24 57 74 81 89 93 94 94 86 95 98 94 100 85 76 64 65 84 83 80 70 84 97 100 84 73 94 98 97 97 96 95 95 90 76
47 42 40 36 32 25 24 34 60 94 98 100 100 99 86 49 48 66 84 95 99 98 77 87 76 72 80 88 92 76 90 96 98 100 90 82 97 99 96 96 97 97 93
38 52 48 32 25 22 31 67 80 94 96 93 77 43 44 46 99 96 88 83 76 57 37 36 35 31 34 41 53 81 75 82 95 99 98 99 96 97 95 95 97 96 94
52 79 37 26 26 35 46 64 42 26 32 35 40 42 54 58 54 59 52 47 37 33 34 29 28 26 27 26 26 30 37 49 62 94 94 98 97 99 100 97 96 96 92
66 73 61 34 26 51 58 32 39 29 29 33 40 32 30 32 29 30 30 27 23 23 24 25 24 24 24 23 25 28 29 26 32 44 81 99 98 96 96 98 95 96 96
97 87 98 37 51 74 86 48 28 31 25 28 36 42 43 44 44 46 47 46 47 47 44 35 28 28 29 28 26 21 22 27 24 20 20 27 85 91 96 96 95 96 95
98 97 93 58 82 95 94 27 25 29 33 36 43 48 52 55 57 60 61 59 58 57 58 60 56 50 49 49 42 30 25 21 22 23 18 16 16 27 60 70 71 73 70
98 92 55 78 100 100 29 23 29 33 39 47 49 53 58 61 64 66 68 69 67 67 66 65 66 63 56 58 56 54 43 34 25 26 22 19 23 21 16 21 20 31 40
95 98 86 100 100 47 22 24 33 40 47 49 53 60 65 72 77 78 79 80 70 64 63 68 67 61 61 60 59 49 43 37 30 28 21 17 18 16 23 23 20 15 14
96 98 97 100 60 31 28 34 40 47 52 53 61 70 75 78 83 86 87 87 87 87 81 60 59 60 61 57 55 50 45 52 56 61 71 43 64 50 57 46 36 30 22
64 83 96 86 33 32 34 36 45 53 51 53 65 75 85 89 94 96 93 93 94 99 100 95 68 58 58 55 58 66 72 86 81 90 96 89 79 72 70 67 65 62 59
96 100 96 41 31 36 37 42 52 53 47 55 65 80 87 89 92 95 97 96 93 98 99 100 99 91 87 74 89 95 99 95 100 89 100 86 88 75 62 63 64 70 70

GFSMA_700_rhum_039.txt.gz
RH
42 51 57 61 62 63 62 63 63 59 56 50 50 48 55 54 49 44 48 34 37 40 44 44 41 34 32 32 36 43 44 45 42 33 36 63 77 56 62 74 70 62 58
55 60 66 68 68 65 65 66 67 67 72 72 66 61 50 48 44 37 35 43 50 43 44 47 49 46 40 37 33 33 42 45 44 44 35 53 83 78 83 83 74 72 74
57 65 71 73 72 67 66 68 67 69 74 76 76 68 54 46 42 32 31 33 37 45 51 51 50 48 50 46 43 37 34 37 46 46 45 38 40 69 94 87 84 79 72
62 64 68 70 72 70 74 72 72 75 79 80 74 56 43 35 35 30 28 27 27 32 38 42 41 43 44 47 48 45 43 38 36 43 48 47 44 41 90 99 85 77 81
78 80 72 70 74 80 85 96 87 88 87 75 51 38 33 31 30 29 27 26 28 29 32 37 42 44 46 47 45 47 47 43 42 38 41 50 50 49 44 65 87 92 87
100 100 99 100 100 99 95 89 91 83 64 44 39 37 35 33 30 28 30 31 32 32 33 38 43 48 48 47 44 43 47 50 47 45 41 41 49 53 52 51 51 67 60
99 100 100 97 86 86 76 63 52 49 48 44 42 39 35 30 31 31 28 27 27 28 30 32 34 40 46 46 40 41 42 50 51 56 49 44 42 48 53 54 54 53 57
71 74 72 69 68 88 100 90 61 52 49 44 39 34 32 32 30 27 25 22 21 20 20 22 25 25 27 37 45 45 45 57 60 58 59 50 46 47 49 51 54 54 53
56 62 68 71 72 68 62 57 53 47 41 36 30 24 25 27 26 25 23 20 17 14 12 12 11 11 15 21 23 28 40 52 89 69 72 77 57 48 54 50 51 54 54
42 49 54 60 64 64 58 49 44 34 22 20 24 25 22 19 18 17 15 13 12 11 10 9 9 9 8 8 13 18 20 27 52 77 96 82 80 64 53 59 55 52 53
49 60 65 66 61 54 51 45 36 24 26 31 31 26 19 16 17 18 13 13 14 23 35 30 18 12 11 11 10 12 13 13 21 74 93 99 93 91 80 66 66 62 56
62 71 66 61 57 55 52 44 31 28 34 35 24 18 17 19 22 40 37 29 37 34 37 48 52 53 47 40 38 34 28 24 27 45 70 95 99 94 97 78 73 68 65
78 77 72 67 58 49 46 42 39 37 30 23 22 28 40 59 71 75 77 64 55 50 45 42 76 84 68 58 56 56 52 48 39 39 96 97 92 98 98 96 82 70 69
82 59 45 40 38 39 38 35 32 24 22 27 41 72 97 100 99 100 98 98 81 67 48 45 55 91 89 79 69 64 61 63 68 60 41 90 100 97 97 96 98 98 76
48 44 32 33 36 37 31 22 19 19 23 40 53 89 100 97 98 96 85 54 70 43 37 30 55 81 84 88 88 74 70 64 58 71 77 75 99 99 99 99 96 98 90
60 66 50 51 55 41 26 25 27 32 45 62 64 67 70 66 48 43 53 80 100 70 44 44 40 53 65 57 71 61 74 72 68 68 95 95 84 89 97 100 96 93 96
63 79 68 69 87 81 55 32 44 46 50 38 26 21 25 29 32 40 58 58 56 86 55 61 57 28 26 27 31 31 34 58 76 73 79 97 98 82 99 97 97 96 97
78 84 86 80 98 100 87 39 45 59 58 24 16 18 21 26 29 34 36 38 42 41 37 25 19 18 21 22 25 26 25 26 38 51 61 91 96 98 98 97 96 96 96
84 90 84 60 71 94 82 63 60 72 39 21 21 25 32 35 36 38 40 41 43 45 47 46 39 36 26 21 20 21 23 23 25 28 32 38 94 96 97 98 97 98 94
76 79 55 80 97 68 75 79 82 44 31 30 33 37 42 44 43 43 45 47 50 54 57 60 54 52 50 45 39 34 24 20 20 21 25 27 31 92 95 97 96 98 100
78 60 87 96 90 88 100 100 71 28 34 35 40 44 45 46 48 52 56 59 62 63 63 63 62 63 59 60 63 58 51 39 20 17 18 21 24 21 75 94 90 93 95
56 46 99 94 98 100 97 79 27 30 36 37 41 46 49 50 57 65 71 76 76 76 75 76 68 63 63 65 68 69 59 57 41 34 21 22 21 20 16 34 68 74 82
67 77 92 88 99 98 89 35 29 36 39 45 48 51 52 57 65 73 82 89 91 92 90 85 79 73 59 60 67 65 62 58 49 38 29 22 22 18 17 16 16 22 39
87 78 73 84 90 90 46 31 37 42 47 51 58 55 57 61 78 84 86 89 94 96 100 100 100 95 82 58 58 62 61 56 50 41 37 23 26 21 21 14 12 13 14
67 63 77 88 94 42 33 36 33 39 48 53 54 56 59 74 86 92 96 94 97 100 100 100 95 91 93 81 68 67 58 61 48 49 90 56 49 52 42 37 32 19 13
68 68 87 96 29 30 33 31 35 46 48 48 50 56 69 85 90 96 98 98 96 99 100 100 100 99 97 90 79 73 78 80 96 92 100 86 84 77 73 72 68 63 52

GFSMA_700_rhum_042.txt.gz
RH
50 48 52 55 56 63 66 68 67 66 68 68 67 66 64 62 59 49 42 40 37 36 43 49 46 45 43 38 31 29 30 36 39 38 34 29 29 48 59 76 78 81 72
45 48 51 59 68 74 80 79 76 77 77 72 70 70 68 62 57 48 37 31 31 28 26 30 42 49 51 49 45 38 30 29 32 39 39 37 32 32 57 82 68 77 81
51 55 60 65 82 89 78 78 80 77 76 81 80 79 74 66 55 42 34 30 28 28 24 24 27 30 39 49 50 46 41 34 29 31 39 40 40 34 47 80 74 75 75
58 67 89 98 85 66 73 85 90 96 99 98 80 68 56 48 43 39 36 32 29 27 25 22 21 24 25 30 40 48 50 45 38 31 29 38 43 43 38 56 91 98 99
76 99 95 84 96 85 99 98 96 88 84 77 65 56 53 51 46 43 40 36 33 29 25 22 23 24 26 28 31 37 42 51 48 41 34 29 36 44 45 41 41 63 100
96 86 93 94 71 69 84 81 79 85 68 56 54 56 54 51 48 45 40 36 32 31 29 27 24 24 25 27 32 36 42 43 46 48 46 38 31 33 44 46 45 40 75
55 61 54 54 55 54 55 55 57 58 61 63 56 53 54 52 49 43 36 33 31 30 29 28 28 27 26 25 27 32 37 43 44 42 44 55 47 34 34 41 47 47 45
55 56 57 50 45 49 58 62 64 64 64 62 58 52 46 39 37 32 30 30 28 26 24 24 22 20 18 19 20 23 26 31 43 45 42 46 61 59 46 48 38 46 48
40 35 33 35 38 39 49 59 63 61 57 52 47 36 31 32 34 34 32 30 28 26 22 18 16 15 14 13 12 13 14 19 26 36 46 45 45 66 68 64 54 42 45
43 46 48 46 46 52 61 64 63 60 57 50 43 37 36 36 35 36 30 23 19 16 15 14 13 11 10 9 8 8 9 10 10 21 28 42 51 50 63 78 73 56 47
53 53 51 50 59 66 69 71 69 62 49 38 38 39 37 30 23 23 20 19 18 20 30 34 28 24 19 15 12 10 8 7 7 8 20 28 47 63 55 74 86 77 62
56 51 53 57 55 56 55 42 29 26 28 31 30 24 19 17 18 28 47 49 39 27 36 56 60 57 50 44 41 33 26 22 16 11 9 16 31 94 56 63 97 85 82
43 34 30 34 48 52 55 49 39 38 28 20 20 22 24 26 36 52 86 99 91 66 52 55 63 67 74 79 81 78 65 53 47 42 26 17 21 59 88 90 52 80 98
30 30 25 30 30 51 62 56 53 52 28 26 30 31 33 41 64 94 100 100 93 86 73 57 32 26 69 93 97 91 83 67 56 54 55 43 26 36 62 98 68 98 99
29 45 32 26 32 50 68 68 86 90 50 32 40 49 49 42 28 29 67 82 68 54 13 9 31 40 31 47 63 83 87 79 66 54 49 54 52 39 51 98 100 99 100
18 35 49 46 52 70 84 72 99 82 77 54 50 62 57 25 18 24 27 44 54 60 60 29 16 29 33 24 48 31 37 50 63 61 52 51 52 53 56 68 99 100 96
41 46 48 71 83 78 56 94 98 95 95 75 66 60 20 16 20 31 38 41 42 52 41 24 26 24 24 22 19 16 18 20 30 38 44 50 58 65 66 82 96 96 96
27 45 65 75 83 58 58 100 93 84 72 71 77 20 21 26 34 40 42 44 45 50 53 45 40 40 38 36 32 23 18 18 21 26 28 34 53 68 92 89 100 95 98
22 48 65 57 58 64 100 85 84 73 77 86 32 24 28 35 39 42 41 40 42 48 54 55 48 47 47 50 48 40 33 27 18 18 24 24 32 52 72 96 94 97 90
27 33 39 57 64 96 96 94 88 100 90 37 27 34 39 43 44 42 40 44 52 58 64 68 65 63 62 60 64 58 51 49 35 23 18 20 22 26 38 89 98 99 97
31 39 44 57 73 98 93 100 100 88 48 27 36 41 45 47 47 46 51 56 64 73 79 81 78 76 75 73 70 71 65 58 50 40 30 22 18 20 24 32 95 97 97
42 37 50 82 84 69 97 100 85 51 27 32 34 41 43 46 46 52 60 73 85 86 89 92 92 93 88 83 76 70 70 65 52 53 46 34 22 18 19 22 25 82 96
40 39 69 69 64 74 84 80 34 26 29 34 41 43 45 45 50 56 72 85 88 94 98 100 100 99 94 99 93 75 63 65 59 59 50 38 34 23 21 21 22 21 33
48 41 50 56 61 71 71 26 27 29 35 44 46 48 47 45 56 70 82 87 96 100 100 100 100 100 100 98 100 99 70 63 60 58 58 37 42 36 29 21 19 19 19
63 64 59 67 72 76 25 25 25 29 35 40 48 52 47 51 68 87 89 93 95 98 100 100 100 100 99 100 100 100 78 68 57 59 62 44 43 42 34 27 23 20 17
82 88 84 81 78 27 26 24 26 32 36 44 47 51 53 61 82 94 97 97 95 98 100 100 100 100 100 100 100 100 86 69 65 59 90 60 82 73 68 63 54 39 22

GFSMA_700_rhum_048.txt.gz
RH
82 81 76 74 76 85 84 78 73 72 74 67 56 61 64 53 48 46 40 31 31 30 29 28 29 29 29 26 23 22 29 31 29 29 27 27 32 39 38 30 33 65 69
83 90 88 85 76 76 69 74 65 58 65 63 77 50 77 61 48 40 42 41 27 27 27 28 28 28 28 28 28 25 22 24 34 34 32 32 28 27 33 39 35 32 71
88 88 89 79 80 68 76 79 45 48 80 50 55 48 57 50 45 41 40 38 38 29 28 28 27 26 26 27 30 30 26 23 22 30 41 37 36 35 31 29 38 39 31
74 79 83 74 61 43 62 44 43 50 46 44 42 38 36 36 38 36 36 35 38 38 36 30 32 31 32 33 32 32 32 28 23 20 24 38 42 39 35 34 30 38 42
78 69 51 46 46 46 46 46 50 48 49 45 41 41 40 40 39 38 36 36 37 39 38 34 36 37 35 35 37 38 37 33 29 24 21 21 29 39 41 41 43 33 37
45 46 47 49 50 47 46 44 47 47 45 40 34 33 28 28 30 32 36 36 39 41 43 41 40 39 37 36 37 38 38 36 32 28 25 25 26 28 40 48 59 60 35
59 57 49 40 38 38 38 38 32 24 20 17 15 16 17 13 10 12 16 20 27 30 33 36 42 44 43 40 38 35 33 33 32 30 28 26 26 29 30 40 48 56 61
45 40 41 40 36 32 24 18 15 13 12 11 10 9 10 20 37 59 16 16 14 15 18 18 20 23 27 32 37 40 39 34 32 29 27 25 26 26 28 32 40 48 51
47 45 44 36 25 18 14 13 12 10 8 8 7 6 6 12 16 17 35 50 15 14 14 14 16 18 20 22 22 23 26 31 30 28 27 26 24 22 22 26 31 41 46
49 46 37 24 16 13 12 11 10 8 7 6 6 8 11 20 25 24 30 25 47 48 25 21 18 17 16 15 15 18 17 18 19 18 16 17 18 17 18 17 22 27 40
48 37 22 15 13 12 11 8 8 7 7 8 11 20 69 64 95 72 32 46 92 100 100 98 41 24 37 22 22 70 21 33 26 19 17 15 13 13 12 12 13 17 27
34 20 14 12 11 8 6 6 6 9 35 73 90 94 94 91 100 100 99 85 95 66 94 61 90 58 71 83 99 68 58 62 60 48 34 26 21 15 11 10 9 10 15
17 12 10 7 6 6 12 48 71 100 92 89 92 82 76 90 96 98 97 95 86 38 32 86 100 100 93 91 100 81 44 50 50 55 54 45 36 34 27 15 10 8 9
12 9 7 5 5 32 80 81 87 88 84 86 75 70 84 91 95 94 93 95 70 40 97 100 100 100 100 99 97 48 20 21 15 16 26 46 51 47 46 44 29 14 9
10 7 6 5 6 72 89 92 84 85 74 72 59 78 89 86 62 68 88 100 100 28 76 100 100 100 100 100 100 74 23 19 13 13 24 16 29 51 61 68 57 43 21
7 6 6 6 7 33 94 83 81 80 85 68 77 80 78 84 84 74 98 100 100 99 99 92 91 69 70 95 100 63 37 22 23 19 14 14 12 19 38 63 70 55 46
6 6 6 7 10 22 85 76 80 78 62 77 91 87 91 94 90 76 63 64 50 79 100 92 95 80 57 94 100 100 70 78 94 65 27 16 11 13 14 24 50 61 49
6 6 7 9 13 18 59 36 34 49 61 100 98 96 97 95 90 25 41 66 90 86 100 100 65 100 97 100 100 100 65 58 89 100 100 25 19 12 10 10 18 33 46
7 8 10 13 17 23 26 34 47 58 98 97 88 97 91 82 23 24 29 38 60 54 45 46 40 62 80 90 96 87 79 71 84 84 64 40 34 22 14 12 12 21 39
9 10 12 17 22 34 29 36 48 59 64 67 78 76 40 22 23 31 37 40 46 46 46 54 65 77 83 95 100 99 100 100 100 100 96 58 48 32 22 16 13 20 31
12 12 15 21 29 42 42 40 49 57 68 74 38 22 22 26 34 37 38 42 45 51 64 80 83 86 89 100 100 100 100 100 100 100 83 74 94 96 89 30 15 17 26
14 15 21 32 39 51 67 62 64 76 62 20 19 23 30 31 32 37 37 43 51 70 85 92 91 94 100 100 100 100 100 100 100 100 100 100 90 90 80 100 52 14 22
16 20 28 47 54 64 80 88 84 58 20 19 24 26 28 31 32 37 40 47 67 86 95 100 100 99 100 100 100 100 100 100 100 100 100 100 100 86 53 46 30 20 18
21 24 35 58 73 79 85 89 53 20 20 24 24 25 27 32 37 43 44 57 80 95 100 100 100 100 100 100 100 100 100 100 100 100 100 96 99 62 60 49 34 28 18
25 29 40 65 82 80 84 55 20 20 24 24 24 25 27 39 42 48 52 70 85 95 100 100 100 100 100 100 100 100 97 100 97 100 100 100 100 72 60 50 40 32 26
28 36 53 73 77 82 61 21 21 25 25 24 24 25 27 37 48 53 63 80 89 96 98 98 100 100 100 100 100 100 100 100 99 99 100 100 100 96 60 49 51 37 31